This demonstration page uses our WeatherBlox Daily Observations layout. Learn more.

Left ArrowRight Arrow

36.17497, -115.13722

Hourly Observations for March 17, 2015

Temp ( °F °C ) Dew Point ( °F °C ) Humidity (%) Winds ( mph kmh ) Pressure ( in mb ) Visibility ( mi km ) Precip ( " mm )
12:53 am 00:53 Clear 64 17.8 32 undefined 30 30 NW 5 7 29.95 1014 10 16 N/A
1:53 am 01:53 Clear 62 16.7 32 undefined 32 32 WNW 3 6 29.94 1014 10 16 N/A
2:53 am 02:53 Clear 62 16.7 31 -0.6 31 31 WNW 7 11 29.93 1014 10 16 N/A
3:53 am 03:53 Clear 59 15 31 -0.6 35 35 N N/A 29.93 1014 10 16 N/A
4:53 am 04:53 Clear 57 13.9 32 undefined 39 39 N 5 7 29.93 1014 10 16 N/A
5:53 am 05:53 Clear 56 13.3 30 -1.1 37 37 NNW 6 9 29.94 1014 10 16 N/A
6:53 am 06:53 Sunny 58 14.4 30 -1.1 35 35 WNW 3 6 29.96 1015 10 16 N/A
7:53 am 07:53 Sunny 60 15.6 33 0.6 36 36 NW 5 7 29.98 1015 10 16 N/A
8:53 am 08:53 Sunny 65 18.3 33 0.6 31 31 NNE 3 6 29.99 1016 10 16 N/A
9:53 am 09:53 Sunny 69 20.6 29 -1.7 22 22 ESE 5 7 29.99 1016 10 16 N/A
10:53 am 10:53 Sunny 72 22.2 27 -2.8 19 19 SSE 8 13 29.99 1016 10 16 N/A
11:53 am 11:53 Sunny 75 23.9 27 -2.8 17 17 SE 7 11 29.97 1015 10 16 N/A
12:53 pm 12:53 Sunny 76 24.4 26 -3.3 16 16 SSE 8 13 29.94 1014 10 16 N/A
1:53 pm 13:53 Sunny 79 26.1 26 -3.3 14 14 SE 8 13 29.91 1013 10 16 N/A
2:53 pm 14:53 Sunny 81 27.2 25 -3.9 13 13 VRB 5 7 29.88 1012 10 16 N/A
3:53 pm 15:53 Sunny 81 27.2 25 -3.9 13 13 SSE 8 13 29.86 1011 10 16 N/A
4:53 pm 16:53 Sunny 80 26.7 25 -3.9 13 13 SSE 6 9 29.85 1011 10 16 N/A
5:53 pm 17:53 Sunny 80 26.7 22 -5.6 11 11 W 8 13 29.85 1011 10 16 N/A
6:53 pm 18:53 Clear 79 26.1 21 -6.1 11 11 WSW 5 7 29.86 1011 10 16 N/A
7:53 pm 19:53 Clear 77 25 22 -5.6 13 13 W 3 6 29.86 1011 10 16 N/A
8:53 pm 20:53 Clear 75 23.9 23 -5 14 14 SW 5 7 29.88 1012 10 16 N/A
9:53 pm 21:53 Clear 73 22.8 25 -3.9 17 17 SW 7 11 29.88 1012 10 16 N/A
10:53 pm 22:53 Clear 72 22.2 25 -3.9 17 17 N N/A 29.88 1012 10 16 N/A
11:53 pm 23:53 Clear 68 20 28 -2.2 22 22 NNE 5 7 29.88 1012 10 16 N/A

Powered by AerisWeather